Location: Azul
(36.7830°S, 59.8500°W)
Time: 09:55:19
(UTC-03:00)

ISS - Pass Details

Date: 09 December 2017
Orbit: 402 x 406 km, 51.6° (Epoch: 16 December)

Event Time Altitude Azimuth Distance (km) Brightness Sun altitude
Exits shadow 04:09:23 - 248° (WSW) 1,682 -0.9 -14.3°
Reaches altitude 10° 04:10:11 10° 238° (WSW) 1,481 -1.1 -14.2°
Maximum altitude 04:12:03 14° 204° (SSW) 1,261 -1.1 -14.0°
Drops below altitude 10° 04:13:56 10° 170° (S) 1,488 -0.1 -13.7°
Sets 04:16:48 0° 143° (SE) 2,355 1.9 -13.3°
